Weather History for Two Harbors, MN

Change the Weather History Date:

Friday, October 14, 2011

  Actual Average Record
Temperature  
Mean Temperature 46 °F -  
Max Temperature 48 °F 55 °F 79 °F (1953)
Min Temperature 44 °F 39 °F 21 °F (2002)
Degree Days  
Heating Degree Days 19    
Moisture  
Dew Point 35 °F    
Average Humidity 67    
Maximum Humidity 76    
Minimum Humidity 53    
Precipitation  
Precipitation 0.00 in - - ()
Sea Level Pressure  
Sea Level Pressure 29.51 in    
Wind  
Wind Speed 8 mph (WNW)    
Max Wind Speed 18 mph    
Max Gust Speed 34 mph    
Visibility 10 miles    
Events      
Averages and records for this station are not official NWS values.
T = Trace of Precipitation, MM = Missing Value Source: NWS Daily Summary

Daily Weather History Graph

Daily Weather History Graph

Search for Another Location

Airport:

Trip Planner

Search our weather history database for the weather conditions in past years. The results will help you decide how hot, cold, wet, or windy it might be!

Date:

Astronomy

Oct. 14, 2011 Rise Set
Actual Time 7:23 AM CDT 6:21 PM CDT
Civil Twilight 6:52 AM CDT 6:52 PM CDT
Nautical Twilight 6:17 AM CDT 7:27 PM CDT
Astronomical Twilight 5:41 AM CDT 8:03 PM CDT
Moon 7:21 PM CDT (10/14) 10:06 AM CDT (10/14)
Length of Visible Light 11h 59m
Length of Day
10h 58m
Waning Gibbous, 94% of the Moon is Illuminated
Oct 14
Waning Gibbous
Oct 19
Last Quarter
Oct 26
New
Nov 2
First Quarter
Nov 10
Full

Hourly Weather History & Observations

Time (CDT) Temp. Windchill Dew Point Humidity Pressure Visibility Wind Dir Wind Speed Gust Speed Precip Events Conditions
12:12 AM 44.6 °F 41.4 °F 37.4 °F 76% 29.50 in 10.0 mi West 5.8 mph - N/A   Scattered Clouds
12:33 AM 44.6 °F 41.4 °F 37.4 °F 76% 29.49 in 10.0 mi WNW 5.8 mph - N/A   Overcast
12:52 AM 44.6 °F 41.4 °F 37.4 °F 76% 29.49 in 10.0 mi WNW 5.8 mph - N/A   Overcast
1:12 AM 46.4 °F 43.5 °F 39.2 °F 76% 29.50 in 10.0 mi WNW 5.8 mph - N/A   Overcast
1:33 AM 46.4 °F 44.3 °F 39.2 °F 76% 29.49 in 10.0 mi WNW 4.6 mph - N/A   Overcast
1:53 AM 46.4 °F 42.9 °F 39.2 °F 76% 29.49 in 10.0 mi WNW 6.9 mph - N/A   Overcast
2:12 AM 46.4 °F 41.5 °F 39.2 °F 76% 29.49 in 10.0 mi WNW 10.4 mph 17.3 mph N/A   Overcast
2:33 AM 44.6 °F 40.2 °F 37.4 °F 76% 29.49 in 10.0 mi West 8.1 mph - N/A   Mostly Cloudy
2:52 AM 44.6 °F 41.4 °F 37.4 °F 76% 29.49 in 10.0 mi WNW 5.8 mph - N/A   Scattered Clouds
3:12 AM 44.6 °F 42.2 °F 37.4 °F 76% 29.49 in 10.0 mi WNW 4.6 mph - N/A   Scattered Clouds
3:33 AM 44.6 °F 39.7 °F 37.4 °F 76% 29.48 in 10.0 mi WNW 9.2 mph - N/A   Scattered Clouds
3:52 AM 46.4 °F 42.4 °F 37.4 °F 71% 29.48 in 10.0 mi WNW 8.1 mph - N/A   Overcast
4:12 AM 44.6 °F 40.2 °F 37.4 °F 76% 29.48 in 10.0 mi WNW 8.1 mph 17.3 mph N/A   Mostly Cloudy
4:33 AM 44.6 °F 40.2 °F 37.4 °F 76% 29.48 in 10.0 mi West 8.1 mph 16.1 mph N/A   Scattered Clouds
4:53 AM 44.6 °F 40.2 °F 37.4 °F 76% 29.48 in 10.0 mi WNW 8.1 mph 18.4 mph N/A   Scattered Clouds
5:12 AM 44.6 °F 42.2 °F 37.4 °F 76% 29.48 in 10.0 mi WNW 4.6 mph - N/A   Scattered Clouds
5:33 AM 44.6 °F 41.4 °F 37.4 °F 76% 29.48 in 10.0 mi WNW 5.8 mph - N/A   Mostly Cloudy
5:52 AM 44.6 °F 40.7 °F 37.4 °F 76% 29.48 in 10.0 mi West 6.9 mph - N/A   Overcast
6:12 AM 44.6 °F 41.4 °F 37.4 °F 76% 29.48 in 10.0 mi WNW 5.8 mph - N/A   Overcast
6:53 AM 44.6 °F 41.4 °F 37.4 °F 76% 29.48 in 10.0 mi WNW 5.8 mph 17.3 mph N/A   Overcast
7:12 AM 44.6 °F 40.7 °F 35.6 °F 71% 29.48 in 10.0 mi West 6.9 mph 17.3 mph N/A   Overcast
7:33 AM 44.6 °F 40.2 °F 35.6 °F 71% 29.48 in 10.0 mi West 8.1 mph 17.3 mph N/A   Overcast
8:12 AM 44.6 °F 38.8 °F 35.6 °F 71% 29.48 in 10.0 mi WNW 11.5 mph 18.4 mph N/A   Mostly Cloudy
8:33 AM 44.6 °F 41.4 °F 35.6 °F 71% 29.49 in 10.0 mi WNW 5.8 mph - N/A   Overcast
8:53 AM 44.6 °F 39.7 °F 35.6 °F 71% 29.49 in 10.0 mi West 9.2 mph - N/A   Overcast
9:12 AM 44.6 °F 40.2 °F 35.6 °F 71% 29.49 in 10.0 mi West 8.1 mph 16.1 mph N/A   Overcast
9:33 AM 44.6 °F 40.7 °F 35.6 °F 71% 29.49 in 10.0 mi West 6.9 mph 18.4 mph N/A   Overcast
9:52 AM 46.4 °F 41.9 °F 35.6 °F 66% 29.49 in 10.0 mi West 9.2 mph 17.3 mph N/A   Overcast
10:13 AM 46.4 °F 41.5 °F 35.6 °F 66% 29.50 in 10.0 mi WNW 10.4 mph 20.7 mph N/A   Overcast
10:33 AM 46.4 °F 42.4 °F 37.4 °F 71% 29.50 in 10.0 mi West 8.1 mph 23.0 mph N/A   Overcast
10:52 AM 46.4 °F 42.4 °F 37.4 °F 71% 29.51 in 10.0 mi WNW 8.1 mph 19.6 mph N/A   Overcast
11:13 AM 44.6 °F 39.2 °F 37.4 °F 76% 29.51 in 7.0 mi West 10.4 mph 17.3 mph N/A   Light Drizzle
11:33 AM 44.6 °F 40.7 °F 37.4 °F 76% 29.51 in 5.0 mi WNW 6.9 mph 23.0 mph N/A   Haze
11:52 AM 46.4 °F 41.9 °F 37.4 °F 71% 29.51 in 10.0 mi WNW 9.2 mph 21.9 mph N/A   Overcast
12:13 PM 46.4 °F 41.1 °F 37.4 °F 71% 29.51 in 7.0 mi West 11.5 mph 26.5 mph N/A   Light Drizzle
12:33 PM 46.4 °F 40.7 °F 37.4 °F 71% 29.51 in 7.0 mi West 12.7 mph 26.5 mph N/A   Overcast
12:52 PM 48.2 °F - 37.4 °F 66% 29.50 in 10.0 mi WNW 9.2 mph 27.6 mph N/A   Mostly Cloudy
1:13 PM 48.2 °F - 35.6 °F 62% 29.51 in 10.0 mi WNW 17.3 mph 29.9 mph N/A   Overcast
1:32 PM 48.2 °F - 35.6 °F 62% 29.50 in 10.0 mi WNW 15.0 mph 21.9 mph N/A   Overcast
2:12 PM 48.2 °F - 35.6 °F 62% 29.50 in 10.0 mi West 15.0 mph 21.9 mph N/A   Overcast
2:33 PM 48.2 °F - 35.6 °F 62% 29.50 in 10.0 mi West 18.4 mph 28.8 mph N/A   Mostly Cloudy
2:52 PM 48.2 °F - 33.8 °F 58% 29.50 in 10.0 mi WNW 10.4 mph 25.3 mph N/A   Mostly Cloudy
3:13 PM 48.2 °F - 33.8 °F 58% 29.51 in 10.0 mi West 11.5 mph 23.0 mph N/A   Mostly Cloudy
3:33 PM 48.2 °F - 32.0 °F 54% 29.51 in 10.0 mi WNW 17.3 mph 31.1 mph N/A   Mostly Cloudy
3:52 PM 48.2 °F - 32.0 °F 54% 29.51 in 10.0 mi WNW 12.7 mph 26.5 mph N/A   Mostly Cloudy
4:13 PM 48.2 °F - 32.0 °F 54% 29.52 in 10.0 mi WNW 12.7 mph 25.3 mph N/A   Mostly Cloudy
4:33 PM 48.2 °F - 32.0 °F 54% 29.52 in 10.0 mi NW 16.1 mph 29.9 mph N/A   Mostly Cloudy
4:52 PM 48.2 °F - 32.0 °F 54% 29.53 in 10.0 mi NW 12.7 mph 24.2 mph N/A   Scattered Clouds
5:13 PM 48.2 °F - 32.0 °F 54% 29.53 in 10.0 mi West 18.4 mph 34.5 mph N/A   Clear
5:33 PM 48.2 °F - 32.0 °F 54% 29.54 in 10.0 mi WNW 9.2 mph 27.6 mph N/A   Clear
5:52 PM 48.2 °F - 32.0 °F 54% 29.55 in 10.0 mi WNW 12.7 mph 25.3 mph N/A   Clear
6:13 PM 46.4 °F 40.7 °F 32.0 °F 57% 29.55 in 10.0 mi WNW 12.7 mph 21.9 mph N/A   Clear
6:33 PM 46.4 °F 41.1 °F 32.0 °F 57% 29.56 in 10.0 mi WNW 11.5 mph 19.6 mph N/A   Clear
6:52 PM 46.4 °F 41.5 °F 32.0 °F 57% 29.56 in 10.0 mi WNW 10.4 mph 27.6 mph N/A   Clear
7:13 PM 46.4 °F 41.1 °F 30.2 °F 53% 29.57 in 10.0 mi WNW 11.5 mph 23.0 mph N/A   Clear
7:33 PM 46.4 °F 41.1 °F 30.2 °F 53% 29.57 in 10.0 mi WNW 11.5 mph 18.4 mph N/A   Clear
7:52 PM 46.4 °F 40.1 °F 30.2 °F 53% 29.57 in 10.0 mi WNW 15.0 mph 24.2 mph N/A   Clear
8:13 PM 46.4 °F 41.1 °F 32.0 °F 57% 29.58 in 10.0 mi WNW 11.5 mph 25.3 mph N/A   Clear
8:33 PM 46.4 °F 41.9 °F 32.0 °F 57% 29.58 in 10.0 mi WNW 9.2 mph 19.6 mph N/A   Clear
8:52 PM 44.6 °F 41.4 °F 32.0 °F 61% 29.58 in 10.0 mi WNW 5.8 mph 23.0 mph N/A   Clear
9:13 PM 44.6 °F 40.7 °F 32.0 °F 61% 29.58 in 10.0 mi WNW 6.9 mph - N/A   Scattered Clouds
9:33 PM 44.6 °F 38.8 °F 32.0 °F 61% 29.58 in 10.0 mi WNW 11.5 mph 16.1 mph N/A   Mostly Cloudy
9:52 PM 46.4 °F 41.1 °F 30.2 °F 53% 29.58 in 10.0 mi WNW 11.5 mph 28.8 mph N/A   Mostly Cloudy
10:13 PM 46.4 °F 40.4 °F 30.2 °F 53% 29.58 in 10.0 mi WNW 13.8 mph 24.2 mph N/A   Mostly Cloudy
10:33 PM 44.6 °F 39.2 °F 30.2 °F 57% 29.58 in 10.0 mi WNW 10.4 mph 26.5 mph N/A   Scattered Clouds
10:52 PM 44.6 °F 38.4 °F 28.4 °F 53% 29.58 in 10.0 mi NW 12.7 mph 28.8 mph N/A   Scattered Clouds
11:13 PM 44.6 °F 37.8 °F 28.4 °F 53% 29.58 in 10.0 mi WNW 15.0 mph 28.8 mph N/A   Clear
11:33 PM 44.6 °F 38.4 °F 28.4 °F 53% 29.58 in 10.0 mi WNW 12.7 mph 29.9 mph N/A   Clear